TimeMST,TemperatureF,Dew PointF,Humidity,Sea Level PressureIn,VisibilityMPH,Wind Direction,Wind SpeedMPH,Gust SpeedMPH,PrecipitationIn,Events,Conditions,WindDirDegrees,DateUTC
12:56 AM,1.9,-0.9,88,30.54,-9999.0,WNW,3.5,-,N/A,,Unknown,300,2014-01-19 07:56:00
1:56 AM,-0.0,-2.9,88,30.54,-9999.0,WNW,3.5,-,N/A,,Unknown,300,2014-01-19 08:56:00
2:56 AM,-0.9,-5.1,83,30.54,-9999.0,WNW,3.5,-,N/A,,Unknown,300,2014-01-19 09:56:00
3:56 AM,-0.0,-4.0,83,30.54,-9999.0,Calm,Calm,-,N/A,,Unknown,0,2014-01-19 10:56:00
4:56 AM,1.9,-0.9,88,30.55,-9999.0,WNW,3.5,-,N/A,,Unknown,300,2014-01-19 11:56:00
5:56 AM,1.9,-0.9,88,30.57,-9999.0,Calm,Calm,-,N/A,,Unknown,0,2014-01-19 12:56:00
6:56 AM,-0.0,-4.0,83,30.59,-9999.0,Calm,Calm,-,N/A,,Unknown,0,2014-01-19 13:56:00
7:56 AM,1.9,-2.0,83,30.59,-9999.0,Calm,Calm,-,N/A,,Unknown,0,2014-01-19 14:56:00
8:56 AM,5.0,1.9,87,30.57,-9999.0,Calm,Calm,-,N/A,,Unknown,0,2014-01-19 15:56:00
9:56 AM,12.0,9.0,88,30.53,-9999.0,Calm,Calm,-,N/A,,Unknown,0,2014-01-19 16:56:00
10:56 AM,12.9,8.1,81,30.51,-9999.0,ESE,3.5,-,N/A,,Unknown,120,2014-01-19 17:56:00
11:56 AM,21.9,10.9,63,30.42,-9999.0,Calm,Calm,-,N/A,,Unknown,0,2014-01-19 18:56:00
12:56 PM,25.0,12.0,58,30.35,-9999.0,Calm,Calm,-,N/A,,Unknown,0,2014-01-19 19:56:00
1:56 PM,30.9,14.0,50,30.32,-9999.0,North,-9999.0,-,N/A,,Unknown,0,2014-01-19 20:56:00
2:56 PM,30.9,12.9,47,30.35,-9999.0,North,-9999.0,-,N/A,,Unknown,0,2014-01-19 21:56:00
3:56 PM,30.9,14.0,50,30.32,-9999.0,Variable,3.5,-,N/A,,Unknown,0,2014-01-19 22:56:00
4:56 PM,28.0,12.0,51,30.35,-9999.0,Variable,3.5,-,N/A,,Unknown,0,2014-01-19 23:56:00
5:56 PM,21.0,14.0,74,30.40,-9999.0,Calm,Calm,-,N/A,,Unknown,0,2014-01-20 00:56:00
6:56 PM,16.0,10.9,81,30.45,-9999.0,Calm,Calm,-,N/A,,Unknown,0,2014-01-20 01:56:00
7:56 PM,10.9,8.1,88,30.47,-9999.0,Calm,Calm,-,N/A,,Unknown,0,2014-01-20 02:56:00
8:56 PM,12.0,7.0,80,30.44,-9999.0,NNE,3.5,-,N/A,,Unknown,20,2014-01-20 03:56:00
9:56 PM,12.9,9.0,84,30.40,-9999.0,Calm,Calm,-,N/A,,Unknown,0,2014-01-20 04:56:00
10:56 PM,15.1,10.9,84,30.39,-9999.0,East,4.6,-,N/A,,Unknown,80,2014-01-20 05:56:00
11:56 PM,14.0,10.9,88,30.36,-9999.0,Calm,Calm,-,N/A,,Unknown,0,2014-01-20 06:56:00